Regional Weather Roundup
Issued by NWS Little Rock, AR

Home | Current Version | Previous Version | Graphics & Text | Print | Product List | Glossary On
Versions: 1 2 3 4 5 6 7 8 9 10 11 12 13 14 15 16 17 18 19 20 21 22 23 24 25 26 27
000
ASUS44 KLZK 311105
RWRLZK

WEATHER ROUNDUP FOR ARKANSAS
NATIONAL WEATHER SERVICE LITTLE ROCK AR
600 AM CDT WED AUG 31 2016

NOTE: "FAIR" INDICATES FEW OR NO CLOUDS BELOW 12,000 FEET WITH NO
SIGNIFICANT WEATHER AND/OR OBSTRUCTIONS TO VISIBILITY.

ARZ001-003-010-029-311200-
NORTHWEST ARKANSAS

CITY           SKY/WX    TMP DP  RH WIND       PRES   REMARKS
FAYETTEVILLE   MOCLDY    67  67 100 CALM      30.08S FOG
FORT SMITH     CLEAR     73  71  93 E3        30.03R
HARRISON       PTCLDY    69  69 100 CALM      30.10S FOG
BENTONVILLE    CLEAR     72  66  83 CALM      30.08S
ROGERS         CLEAR     72  71  97 E5        30.09S
SILOAM SPGS    CLOUDY    72  63  73 CALM      30.06R
HIGHFILL       FOG       69  69 100 N3        30.08S VSB 1
SPRINGDALE     CLEAR     72  72 100 CALM      30.09  FOG
$$

ARZ004-005-016-311200-
NORTH CENTRAL ARKANSAS

CITY           SKY/WX    TMP DP  RH WIND       PRES   REMARKS
BATESVILLE     MOCLDY    72  70  94 CALM      30.04S
FLIPPIN        MOCLDY    72  68  88 CALM      30.05R
MTN HOME       MOCLDY    71  70  96 CALM      30.07S
$$

ARZ040-041-311200-
WEST CENTRAL ARKANSAS

CITY           SKY/WX    TMP DP  RH WIND       PRES   REMARKS
MENA           CLEAR     70  70 100 CALM      30.05F
MOUNT IDA      CLEAR     71  69  93 CALM      30.02S
$$

ARZ009-017-025-026-028-311200-
NORTHEAST ARKANSAS

CITY           SKY/WX    TMP DP  RH WIND       PRES   REMARKS
JONESBORO      CLEAR     74  70  87 NE6       30.01S
NEWPORT        CLEAR     72  71  97 N6        30.02S
WALNUT RIDGE   CLEAR     72  68  88 N6        30.02S
BLYTHEVILLE    CLEAR     72  71  97 N5        30.01S
$$

ARZ022-023-033-042-044-311200-
CENTRAL ARKANSAS

CITY           SKY/WX    TMP DP  RH WIND       PRES   REMARKS
LITTLE ROCK    CLEAR     78  72  81 N5        30.01S
N LITTLE ROCK    N/A     75  72  91 N5        29.98S
SEARCY         CLEAR     75  74  96 N6        30.03S
HOT SPRINGS    CLEAR     73  71  93 W3        30.02S
RUSSELLVILLE   PTCLDY    72  71  97 CALM      30.02S FOG
$$

ARZ036-311200-
EAST ARKANSAS

CITY           SKY/WX    TMP DP  RH WIND       PRES   REMARKS
WEST MEMPHIS   CLEAR     73  72  96 NW3       29.99S FOG
$$

ARZ050-053-066-070-073-311200-
SOUTHWEST ARKANSAS

CITY           SKY/WX    TMP DP  RH WIND       PRES   REMARKS
ARKADELPHIA    FAIR      73  72  96 CALM      30.00S FOG
TEXARKANA      CLEAR     74  73  97 NE3       29.99S FOG
EL DORADO      PTCLDY    73  72  96 N5        29.98S
DE QUEEN       CLEAR     72  72 100 CALM      29.99S FOG
$$

ARZ056-057-069-311200-
SOUTHEAST ARKANSAS

CITY           SKY/WX    TMP DP  RH WIND       PRES   REMARKS
PINE BLUFF     CLEAR     75  73  93 N6        29.99R
STUTTGART      CLEAR     73  70  88 N6        30.00S
MONTICELLO     CLEAR     76  72  87 CALM      29.98R

$$






USA.gov is the U.S. government's official web portal to all federal, state and local government web resources and services.